Time,TemperatureF,DewpointF,PressureIn,WindDirection,WindDirectionDegrees,WindSpeedMPH,WindSpeedGustMPH,Humidity,HourlyPrecipIn,Conditions,Clouds,dailyrainin,SoftwareType,DateUTC
2013-07-29 00:12:00,52.0,50.0,-100.00,SSW,205,0.0,0.0,94,0.00,,,-99.99,,2013-07-29 05:12:00,
2013-07-29 00:32:00,51.0,50.0,-100.00,NNW,335,0.0,0.0,95,0.00,,,-99.99,,2013-07-29 05:32:00,
2013-07-29 00:42:00,51.0,50.0,-100.00,NNE,20,0.0,1.0,95,0.00,,,-99.99,,2013-07-29 05:42:00,
2013-07-29 00:53:00,50.0,49.0,-100.00,West,270,0.0,0.0,95,0.00,,,-99.99,,2013-07-29 05:53:00,
2013-07-29 01:12:00,50.0,49.0,-100.00,West,270,0.0,0.0,95,0.00,,,-99.99,,2013-07-29 06:12:00,
2013-07-29 01:32:00,50.0,49.0,-100.00,SSW,210,0.0,1.0,95,0.00,,,-99.99,,2013-07-29 06:32:00,
2013-07-29 01:43:00,50.0,49.0,-100.00,SSW,210,0.0,0.0,95,0.00,,,-99.99,,2013-07-29 06:43:00,
2013-07-29 02:12:00,50.0,49.0,-100.00,SSW,210,0.0,0.0,95,0.00,,,-99.99,,2013-07-29 07:12:00,
2013-07-29 02:33:00,50.0,49.0,-100.00,ENE,70,1.0,1.0,95,0.00,,,-99.99,,2013-07-29 07:33:00,
2013-07-29 02:43:00,50.0,49.0,-100.00,East,90,0.0,1.0,95,0.00,,,-99.99,,2013-07-29 07:43:00,
2013-07-29 02:53:00,49.0,48.0,-100.00,North,10,0.0,0.0,95,0.00,,,-99.99,,2013-07-29 07:53:00,
2013-07-29 03:12:00,49.0,47.0,-100.00,North,10,0.0,0.0,95,0.00,,,-99.99,,2013-07-29 08:12:00,
2013-07-29 03:22:00,49.0,47.0,-100.00,North,10,0.0,0.0,95,0.00,,,-99.99,,2013-07-29 08:22:00,
2013-07-29 03:33:00,49.0,47.0,-100.00,North,10,0.0,0.0,95,0.00,,,-99.99,,2013-07-29 08:33:00,
2013-07-29 03:42:00,48.0,47.0,-100.00,NE,45,1.0,1.0,95,0.00,,,-99.99,,2013-07-29 08:42:00,
2013-07-29 04:02:00,48.0,47.0,-100.00,NE,45,1.0,1.0,95,0.00,,,-99.99,,2013-07-29 09:02:00,
2013-07-29 04:12:00,48.0,47.0,-100.00,SSE,150,0.0,0.0,96,0.00,,,-99.99,,2013-07-29 09:12:00,
2013-07-29 04:22:00,48.0,47.0,-100.00,SSE,150,0.0,0.0,96,0.00,,,-99.99,,2013-07-29 09:22:00,
2013-07-29 04:33:00,48.0,47.0,-100.00,SSE,150,0.0,0.0,96,0.00,,,-99.99,,2013-07-29 09:33:00,
2013-07-29 04:43:00,47.0,46.0,-100.00,SSE,150,0.0,0.0,96,0.00,,,-99.99,,2013-07-29 09:43:00,
2013-07-29 05:37:00,47.0,46.0,-100.00,NE,40,2.0,4.0,96,0.00,,,-99.99,,2013-07-29 10:37:00,
2013-07-29 05:48:00,47.0,46.0,-100.00,NE,35,0.0,3.0,96,0.00,,,-99.99,,2013-07-29 10:48:00,
2013-07-29 05:53:00,47.0,46.0,-100.00,ENE,65,0.0,0.0,96,0.00,,,-99.99,,2013-07-29 10:53:00,
2013-07-29 06:44:00,46.0,45.0,-100.00,SSE,150,0.0,0.0,96,0.00,,,-99.99,,2013-07-29 11:44:00,
2013-07-29 06:55:00,46.0,45.0,-100.00,SSE,150,0.0,0.0,96,0.00,,,-99.99,,2013-07-29 11:55:00,
2013-07-29 07:15:00,48.0,47.0,-100.00,South,175,0.0,0.0,96,0.00,,,-99.99,,2013-07-29 12:15:00,
2013-07-29 07:35:00,49.0,48.0,-100.00,NE,50,1.0,1.0,96,0.00,,,-99.99,,2013-07-29 12:35:00,
2013-07-29 07:45:00,53.0,52.0,-100.00,SSW,205,0.0,1.0,96,0.00,,,-99.99,,2013-07-29 12:45:00,
2013-07-29 08:17:00,56.0,55.0,-100.00,SE,145,0.0,1.0,96,0.00,,,-99.99,,2013-07-29 13:17:00,
2013-07-29 08:27:00,56.0,55.0,-100.00,SE,145,0.0,1.0,96,0.00,,,-99.99,,2013-07-29 13:27:00,
2013-07-29 08:36:00,56.0,55.0,-100.00,SE,145,0.0,1.0,96,0.00,,,-99.99,,2013-07-29 13:36:00,
2013-07-29 08:44:00,59.0,58.0,-100.00,South,170,1.0,2.0,96,0.00,,,-99.99,,2013-07-29 13:44:00,
2013-07-29 09:07:00,62.0,60.0,-100.00,SE,135,1.0,2.0,95,0.00,,,-99.99,,2013-07-29 14:07:00,
2013-07-29 09:28:00,63.0,58.0,-100.00,SE,140,3.0,6.0,84,0.00,,,-99.99,,2013-07-29 14:28:00,
2013-07-29 09:35:00,63.0,58.0,-100.00,SE,140,3.0,6.0,84,0.00,,,-99.99,,2013-07-29 14:35:00,
2013-07-29 09:55:00,65.0,54.0,-100.00,SSE,160,3.0,6.0,66,0.00,,,-99.99,,2013-07-29 14:55:00,
2013-07-29 10:08:00,65.0,54.0,-100.00,SSE,160,3.0,6.0,66,0.00,,,-99.99,,2013-07-29 15:08:00,
2013-07-29 10:15:00,67.0,54.0,-100.00,SE,145,3.0,6.0,62,0.00,,,-99.99,,2013-07-29 15:15:00,
2013-07-29 10:37:00,68.0,53.0,-100.00,SE,140,5.0,7.0,57,0.00,,,-99.99,,2013-07-29 15:37:00,
2013-07-29 10:45:00,69.0,51.0,-100.00,SW,220,4.0,7.0,52,0.00,,,-99.99,,2013-07-29 15:45:00,
2013-07-29 10:54:00,69.0,50.0,-100.00,South,190,5.0,7.0,50,0.00,,,-99.99,,2013-07-29 15:54:00,
2013-07-29 11:13:00,69.0,50.0,-100.00,South,180,6.0,7.0,50,0.00,,,-99.99,,2013-07-29 16:13:00,
2013-07-29 11:24:00,69.0,50.0,-100.00,South,180,6.0,7.0,50,0.00,,,-99.99,,2013-07-29 16:24:00,
2013-07-29 11:38:00,69.0,50.0,-100.00,South,180,6.0,7.0,50,0.00,,,-99.99,,2013-07-29 16:38:00,
2013-07-29 11:55:00,71.0,51.0,-100.00,SE,145,6.0,8.0,48,0.00,,,-99.99,,2013-07-29 16:55:00,
2013-07-29 12:44:00,72.0,48.0,-100.00,NE,45,6.0,9.0,42,0.00,,,-99.99,,2013-07-29 17:44:00,
2013-07-29 13:06:00,73.0,49.0,-100.00,SE,125,4.0,11.0,43,0.00,,,-99.99,,2013-07-29 18:06:00,
2013-07-29 13:35:00,72.0,49.0,-100.00,SE,135,2.0,7.0,45,0.00,,,-99.99,,2013-07-29 18:35:00,
2013-07-29 13:46:00,75.0,50.0,-100.00,SE,140,4.0,8.0,42,0.00,,,-99.99,,2013-07-29 18:46:00,
2013-07-29 14:15:00,75.0,50.0,-100.00,SSW,205,5.0,7.0,41,0.00,,,-99.99,,2013-07-29 19:15:00,
2013-07-29 14:37:00,74.0,50.0,-100.00,SSE,165,6.0,11.0,42,0.00,,,-99.99,,2013-07-29 19:37:00,
2013-07-29 14:45:00,74.0,50.0,-100.00,South,170,6.0,14.0,42,0.00,,,-99.99,,2013-07-29 19:45:00,
2013-07-29 14:59:00,73.0,49.0,-100.00,South,170,4.0,9.0,42,0.00,,,-99.99,,2013-07-29 19:59:00,
2013-07-29 15:24:00,74.0,51.0,-100.00,SSE,150,7.0,11.0,43,0.00,,,-99.99,,2013-07-29 20:24:00,
2013-07-29 15:47:00,74.0,51.0,-100.00,South,185,7.0,12.0,43,0.00,,,-99.99,,2013-07-29 20:47:00,
2013-07-29 16:05:00,74.0,51.0,-100.00,South,190,6.0,11.0,43,0.00,,,-99.99,,2013-07-29 21:05:00,
2013-07-29 16:48:00,75.0,51.0,-100.00,South,185,6.0,13.0,42,0.00,,,-99.99,,2013-07-29 21:48:00,
2013-07-29 16:57:00,75.0,51.0,-100.00,SE,140,7.0,12.0,42,0.00,,,-99.99,,2013-07-29 21:57:00,
2013-07-29 17:04:00,75.0,51.0,-100.00,SE,140,7.0,12.0,42,0.00,,,-99.99,,2013-07-29 22:04:00,
2013-07-29 17:16:00,74.0,50.0,-100.00,SSE,150,9.0,11.0,42,0.00,,,-99.99,,2013-07-29 22:16:00,
2013-07-29 17:37:00,74.0,50.0,-100.00,SE,140,6.0,15.0,42,0.00,,,-99.99,,2013-07-29 22:37:00,
2013-07-29 17:44:00,74.0,50.0,-100.00,SE,145,7.0,10.0,43,0.00,,,-99.99,,2013-07-29 22:44:00,
2013-07-29 18:44:00,73.0,52.0,-100.00,SE,140,7.0,9.0,47,0.00,,,-99.99,,2013-07-29 23:44:00,
2013-07-29 18:54:00,72.0,51.0,-100.00,South,185,4.0,9.0,47,0.00,,,-99.99,,2013-07-29 23:54:00,
2013-07-29 19:17:00,72.0,51.0,-100.00,SSW,200,3.0,7.0,46,0.00,,,-99.99,,2013-07-30 00:17:00,
2013-07-29 19:34:00,72.0,51.0,-100.00,SSE,165,4.0,9.0,46,0.00,,,-99.99,,2013-07-30 00:34:00,
2013-07-29 19:47:00,71.0,50.0,-100.00,SE,145,3.0,6.0,47,0.00,,,-99.99,,2013-07-30 00:47:00,
2013-07-29 20:37:00,68.0,52.0,-100.00,SSE,165,2.0,4.0,57,0.00,,,-99.99,,2013-07-30 01:37:00,
2013-07-29 20:44:00,66.0,54.0,-100.00,SE,140,2.0,5.0,63,0.00,,,-99.99,,2013-07-30 01:44:00,
2013-07-29 21:37:00,63.0,56.0,-100.00,SE,140,1.0,2.0,77,0.00,,,-99.99,,2013-07-30 02:37:00,
2013-07-29 21:45:00,61.0,56.0,-100.00,ESE,120,1.0,3.0,83,0.00,,,-99.99,,2013-07-30 02:45:00,
2013-07-29 21:54:00,61.0,56.0,-100.00,SE,140,1.0,2.0,85,0.00,,,-99.99,,2013-07-30 02:54:00,
2013-07-29 22:08:00,61.0,56.0,-100.00,SE,140,1.0,2.0,85,0.00,,,-99.99,,2013-07-30 03:08:00,
2013-07-29 22:34:00,60.0,57.0,-100.00,SE,135,1.0,4.0,89,0.00,,,-99.99,,2013-07-30 03:34:00,
2013-07-29 22:45:00,60.0,57.0,-100.00,SE,140,2.0,3.0,90,0.00,,,-99.99,,2013-07-30 03:45:00,
2013-07-29 23:03:00,60.0,57.0,-100.00,SSE,150,1.0,3.0,90,0.00,,,-99.99,,2013-07-30 04:03:00,
2013-07-29 23:33:00,60.0,57.0,-100.00,ESE,115,2.0,3.0,91,0.00,,,-99.99,,2013-07-30 04:33:00,
2013-07-29 23:43:00,60.0,57.0,-100.00,ESE,115,2.0,3.0,91,0.00,,,-99.99,,2013-07-30 04:43:00,
2013-07-29 23:53:00,60.0,57.0,-100.00,East,90,2.0,4.0,89,0.00,,,-99.99,,2013-07-30 04:53:00,